Вернуться в каталог

THORAD AGENA D DEB

АктивенLEO
NORAD 4768·DEBRIS·🇺🇸 United States

Запущен Apr 8, 1970 с Vandenberg Space Force Base

Loading…

Ближайшие Пролёты (ближайшие 24 часа)

TLE

СвежийSource: Space-Track

Эпоха: Sep 14, 2026, 03:20 UTC

1 04768U 70025DN  26257.13948813  .00000204  00000-0  27941-3 0  9990
2 04768 100.1571 307.7436 0030899 152.9846 230.0488 13.71794705810059

Отслеживайте THORAD AGENA D DEB в реальном времени с AllMySat

Download on the App Store